Simultaneous Nadir Overpasses (SNOs) Predictions

Prediction of SNOs between AQUA and METOP-B Satellite Orbit:

Table of predicted SNOs for the next 14.0 days since TLE Epoch: 8/21/2020
Index Date (AQUA) Time (AQUA) Lat,Lon (AQUA) SZA (AQUA ) Date (METOP-B) Time (METOP-B) Lat,Lon (METOP-B) SZA (METOP-B ) Distance(km) Time Diff (sec)
1 08/23/2020 06:14:45 -73.85, -99.44 117.40 08/23/2020 06:14:11 -73.83, -99.41 117.41 1.85 34
2 08/23/2020 07:04:14 73.90, 68.07 62.67 08/23/2020 07:04:50 73.89, 68.05 62.66 1.71 36
3 08/26/2020 01:49:00 -73.83, -32.96 116.46 08/26/2020 01:48:32 -73.82, -33.04 116.46 2.59 28
4 08/26/2020 02:38:29 73.89, 134.54 63.62 08/26/2020 02:39:10 73.92, 134.54 63.65 3.39 41
5 08/28/2020 21:23:16 -73.86, 33.40 115.44 08/28/2020 21:22:52 -73.85, 33.45 115.44 2.21 24
6 08/28/2020 22:12:44 73.88,-159.00 64.60 08/28/2020 22:13:31 73.90,-159.10 64.62 3.61 47
7 08/31/2020 16:07:51 73.15, -66.29 64.80 08/31/2020 16:06:45 73.10, -69.17 64.86 93.15 66
8 08/31/2020 16:57:30 -73.85, 99.86 114.44 08/31/2020 16:57:12 -73.83, 99.82 114.46 2.38 18
9 08/31/2020 17:46:59 73.93, -92.68 65.65 08/31/2020 17:47:50 73.92, -92.62 65.65 1.62 51
10 09/03/2020 11:42:10 73.36, -0.29 66.05 09/03/2020 11:41:02 73.27, -2.38 66.04 67.25 68
11 09/03/2020 12:31:45 -73.85, 166.31 113.43 09/03/2020 12:31:32 -73.86, 166.30 113.41 1.79 13
12 09/03/2020 13:21:14 73.93, -26.24 66.68 09/03/2020 13:22:11 73.90, -26.27 66.64 3.31 57
